Location: Northam
(31.6525°S, 116.6655°E)
Time: 08:57:34
(UTC+08:00)

N. Korean satellite - Pass Details

Date: 19 May 2021
Orbit: 450 x 500 km, 97.2° (Epoch: 13 June)

Event Time Altitude Azimuth Distance (km) Brightness Sun altitude
Rises 18:33:03 0° 195° (SSW) 2,629 10.3 -15.0°
Reaches altitude 10° 18:36:22 10° 227° (SW) 1,731 9.8 -15.7°
Maximum altitude 18:37:45 12° 249° (WSW) 1,614 10.0 -16.0°
Drops below altitude 10° 18:39:08 10° 271° (W) 1,719 10.6 -16.3°
Sets 18:42:24 0° 304° (WNW) 2,584 11.6 -17.0°
